This is the latest recevied weather packets stored in our database for station/object W8LMG. If no packets are shown the sender has not sent any weather packets the latest 10 day(s).
| Time | Temp. | Humidity | Pressure | Rain* | Wind** | Luminosity | Snow |
|---|---|---|---|---|---|---|---|
| 1777921350 | 20.56° C | 43% | 1012.6 hPa | 0 mm | - | 756 W/m² | - |
| 1777921046 | 21.11° C | 44% | 1012.5 hPa | 0 mm | - | 186 W/m² | - |
| 1777920743 | 21.11° C | 43% | 1012.8 hPa | 0 mm | - | 431 W/m² | - |
| 1777920439 | 20.56° C | 46% | 1012.7 hPa | 0 mm | - | 261 W/m² | - |
| 1777920135 | 21.11° C | 45% | 1012.7 hPa | 0 mm | - | 687 W/m² | - |
| 1777919831 | 20° C | 44% | 1012.9 hPa | 0 mm | - | 698 W/m² | - |
| 1777919528 | 19.44° C | 46% | 1013.2 hPa | 0 mm | - | 879 W/m² | - |
| 1777919226 | 19.44° C | 46% | 1013.4 hPa | 0 mm | - | 254 W/m² | - |
| 1777918923 | 20.56° C | 47% | 1013.4 hPa | 0 mm | - | 186 W/m² | - |
| 1777918621 | 20° C | 47% | 1013.3 hPa | 0 mm | - | 234 W/m² | - |
| 1777918318 | 20.56° C | 44% | 1013.4 hPa | 0 mm | - | 501 W/m² | - |
| 1777918017 | 20° C | 49% | 1013.3 hPa | 0 mm | - | 856 W/m² | - |
| 1777917715 | 19.44° C | 49% | 1013.6 hPa | 0 mm | - | 288 W/m² | - |
| 1777917412 | 18.89° C | 49% | 1013.6 hPa | 0 mm | - | 621 W/m² | - |
| 1777917109 | 19.44° C | 49% | 1013.7 hPa | 0 mm | - | 226 W/m² | - |
| 1777916807 | 20° C | 44% | 1013.7 hPa | 0 mm | - | 284 W/m² | - |
| 1777916504 | 19.44° C | 46% | 1013.8 hPa | 0 mm | - | 503 W/m² | - |
| 1777916201 | 20° C | 45% | 1013.8 hPa | 0 mm | - | 325 W/m² | - |
| 1777915898 | 19.44° C | 47% | 1014.1 hPa | 0 mm | - | 465 W/m² | - |
| 1777915595 | 19.44° C | 48% | 1014.2 hPa | 0 mm | - | 333 W/m² | - |
| 1777915291 | 18.33° C | 52% | 1014.4 hPa | 0 mm | - | 366 W/m² | - |
| 1777914987 | 18.33° C | 48% | 1014.3 hPa | 0 mm | - | 464 W/m² | - |
| 1777914685 | 18.33° C | 50% | 1014.4 hPa | 0 mm | - | 295 W/m² | - |
| 1777914381 | 17.78° C | 48% | 1014.5 hPa | 0 mm | - | 286 W/m² | - |
| 1777914079 | 17.78° C | 51% | 1014.5 hPa | 0 mm | - | 329 W/m² | - |
* Rain latest hour (hover to see other rain measurements)
** Current wind speed in m/s (hover to see current wind gust speed)